TEJ584 SCEL-YSSY

Flight info

Callsign TEJ584
Flight time N/A
Altitude 35000
Route ANGOD6C ANGOD UQ803 SUMKO/N0493F370 UT115 VLD DCT 47S077W 54S082W 56S084W/N0480F390 61S090W/N0481F380 64S096W 68S108W/N0485F400 70S116W 71S131W 71S140W 70S150W 69S160W 67S170W 63S180W 57S170E 51S163E/N0497F430 45S158E DCT 39S54 DCT MARLN MARLN5
Aircraft A359/H-SDE2E3GHIJ3J4J5LM1ORWXY/LB1D1

Departure

Time N/A
Airport Comodoro Arturo Merino Benítez International Airport (SCEL)

Arrival

Time 2026-05-08 02:36
Airport Sydney Kingsford Smith International Airport (YSSY)
Time Latitude Longitude Altitude Speed Heading
2026-05-08 02:11 -35.48594 152.60583 38118 ft 510 kts 336°
2026-05-08 02:11 -35.45202 152.59303 37841 ft 509 kts 336°
2026-05-08 02:11 -35.41818 152.58027 37581 ft 509 kts 336°
2026-05-08 02:12 -35.38436 152.56753 37305 ft 508 kts 336°
2026-05-08 02:12 -35.35056 152.55480 37042 ft 508 kts 336°
2026-05-08 02:12 -35.31686 152.54212 36777 ft 506 kts 336°
2026-05-08 02:12 -35.28321 152.52946 36516 ft 505 kts 336°
2026-05-08 02:13 -35.24961 152.51683 36255 ft 504 kts 335°
2026-05-08 02:13 -35.21652 152.50441 36011 ft 504 kts 335°
2026-05-08 02:13 -35.18306 152.49185 35766 ft 503 kts 335°
2026-05-08 02:13 -35.14961 152.47931 35513 ft 503 kts 335°
2026-05-08 02:14 -35.11607 152.46674 35268 ft 503 kts 335°
2026-05-08 02:14 -35.08258 152.45420 35027 ft 504 kts 335°
2026-05-08 02:14 -35.04904 152.44165 34786 ft 505 kts 335°
2026-05-08 02:14 -35.01546 152.42910 34539 ft 505 kts 335°
2026-05-08 02:15 -34.98180 152.41653 34303 ft 506 kts 335°
2026-05-08 02:15 -34.94811 152.40396 34079 ft 507 kts 335°
2026-05-08 02:15 -34.91492 152.39160 33306 ft 505 kts 335°
2026-05-08 02:15 -34.88128 152.37907 32357 ft 507 kts 335°
2026-05-08 02:16 -34.84750 152.36649 31395 ft 509 kts 334°
2026-05-08 02:16 -34.81666 152.35502 30488 ft 513 kts 334°
2026-05-08 02:16 -34.78238 152.34226 29343 ft 517 kts 334°
2026-05-08 02:16 -34.74794 152.32946 28390 ft 516 kts 334°
2026-05-08 02:17 -34.71373 152.31683 27665 ft 511 kts 334°
2026-05-08 02:17 -34.67992 152.30434 26927 ft 506 kts 334°
2026-05-08 02:17 -34.64688 152.29212 26190 ft 502 kts 334°
2026-05-08 02:17 -34.61358 152.27981 25437 ft 498 kts 335°
2026-05-08 02:18 -34.58060 152.26763 24696 ft 494 kts 335°
2026-05-08 02:18 -34.54780 152.25552 23968 ft 490 kts 335°
2026-05-08 02:18 -34.51530 152.24353 23163 ft 487 kts 335°
2026-05-08 02:18 -34.48310 152.23165 22390 ft 481 kts 335°
2026-05-08 02:19 -34.45132 152.21996 21666 ft 474 kts 335°
2026-05-08 02:19 -34.41997 152.20843 20944 ft 468 kts 335°
2026-05-08 02:19 -34.38897 152.19703 20220 ft 463 kts 335°
2026-05-08 02:19 -34.35872 152.18591 19504 ft 458 kts 335°
2026-05-08 02:20 -34.32837 152.17475 18773 ft 454 kts 335°
2026-05-08 02:20 -34.29830 152.16371 18011 ft 450 kts 335°
2026-05-08 02:20 -34.26849 152.15277 17236 ft 445 kts 336°
2026-05-08 02:20 -34.23904 152.14198 16499 ft 439 kts 336°
2026-05-08 02:21 -34.20999 152.13134 15782 ft 434 kts 336°
2026-05-08 02:21 -34.18123 152.12082 15047 ft 429 kts 336°
2026-05-08 02:21 -34.15282 152.11043 14317 ft 425 kts 336°
2026-05-08 02:21 -34.12508 152.10029 13575 ft 420 kts 336°
2026-05-08 02:22 -34.09727 152.09013 12816 ft 414 kts 337°
2026-05-08 02:22 -34.07083 152.07792 12030 ft 400 kts 326°
2026-05-08 02:22 -34.04939 152.05812 11244 ft 381 kts 307°
2026-05-08 02:22 -34.03526 152.03230 10760 ft 358 kts 289°
2026-05-08 02:23 -34.02835 152.00464 10564 ft 333 kts 275°
2026-05-08 02:23 -34.02537 151.97789 10459 ft 312 kts 272°
2026-05-08 02:23 -34.02295 151.95272 10358 ft 294 kts 272°
2026-05-08 02:23 -34.02066 151.92927 10254 ft 278 kts 272°
2026-05-08 02:24 -34.01843 151.90671 10153 ft 264 kts 272°
2026-05-08 02:24 -34.01629 151.88523 10046 ft 251 kts 272°
2026-05-08 02:24 -34.01424 151.86486 9945 ft 241 kts 272°
2026-05-08 02:24 -34.01222 151.84437 9726 ft 254 kts 272°
2026-05-08 02:25 -34.01009 151.82289 9558 ft 261 kts 272°
2026-05-08 02:25 -34.00787 151.80116 9249 ft 261 kts 272°
2026-05-08 02:25 -34.00472 151.77957 8811 ft 264 kts 281°
2026-05-08 02:25 -33.99772 151.75895 8436 ft 268 kts 289°
2026-05-08 02:26 -33.98941 151.73886 8084 ft 268 kts 290°
2026-05-08 02:26 -33.98113 151.71906 7933 ft 268 kts 290°
2026-05-08 02:26 -33.97278 151.69891 7942 ft 269 kts 290°
2026-05-08 02:26 -33.96448 151.67886 7611 ft 267 kts 289°
2026-05-08 02:27 -33.95616 151.65865 7052 ft 272 kts 289°
2026-05-08 02:27 -33.94775 151.63817 6552 ft 274 kts 289°
2026-05-08 02:27 -33.93926 151.61757 6073 ft 274 kts 289°
2026-05-08 02:27 -33.93082 151.59709 5639 ft 272 kts 289°
2026-05-08 02:28 -33.92243 151.57674 5243 ft 270 kts 289°
2026-05-08 02:28 -33.91415 151.55669 5004 ft 264 kts 289°
2026-05-08 02:28 -33.90602 151.53694 4962 ft 264 kts 289°
2026-05-08 02:28 -33.89801 151.51747 4830 ft 261 kts 289°
2026-05-08 02:29 -33.88996 151.49793 4458 ft 258 kts 289°
2026-05-08 02:29 -33.88212 151.47902 4305 ft 247 kts 289°
2026-05-08 02:29 -33.87641 151.46041 4146 ft 228 kts 272°
2026-05-08 02:29 -33.87745 151.44243 4017 ft 208 kts 250°
2026-05-08 02:30 -33.88147 151.42616 3885 ft 197 kts 246°
2026-05-08 02:30 -33.88542 151.41096 3849 ft 184 kts 248°
2026-05-08 02:30 -33.88890 151.39654 3645 ft 176 kts 249°
2026-05-08 02:30 -33.89215 151.38258 3385 ft 172 kts 249°
2026-05-08 02:31 -33.89539 151.36884 3125 ft 169 kts 249°
2026-05-08 02:31 -33.89854 151.35557 2895 ft 165 kts 250°
2026-05-08 02:31 -33.90162 151.34243 2672 ft 160 kts 251°
2026-05-08 02:31 -33.90461 151.32975 2464 ft 155 kts 252°
2026-05-08 02:32 -33.90750 151.31750 2258 ft 150 kts 252°
2026-05-08 02:32 -33.91031 151.30557 2060 ft 146 kts 253°
2026-05-08 02:32 -33.91298 151.29427 1883 ft 135 kts 255°
2026-05-08 02:32 -33.91542 151.28383 1695 ft 123 kts 255°
2026-05-08 02:33 -33.91764 151.27440 1546 ft 113 kts 254°
2026-05-08 02:33 -33.91975 151.26543 1394 ft 111 kts 253°
2026-05-08 02:33 -33.92183 151.25654 1246 ft 112 kts 252°
2026-05-08 02:33 -33.92396 151.24760 1091 ft 110 kts 254°
2026-05-08 02:34 -33.92606 151.23864 935 ft 111 kts 255°
2026-05-08 02:34 -33.92816 151.22969 774 ft 112 kts 255°
2026-05-08 02:34 -33.93028 151.22060 624 ft 113 kts 253°
2026-05-08 02:34 -33.93244 151.21159 467 ft 111 kts 255°
2026-05-08 02:35 -33.93452 151.20260 322 ft 111 kts 254°
2026-05-08 02:35 -33.93666 151.19360 145 ft 112 kts 256°
2026-05-08 02:35 -33.93877 151.18469 51 ft 107 kts 255°
2026-05-08 02:35 -33.94055 151.17717 35 ft 71 kts 255°
2026-05-08 02:36 -33.94131 151.17388 34 ft 24 kts 254°
2026-05-08 02:36 -33.94135 151.17283 35 ft 9 kts 305°
2026-05-08 02:36 -33.94074 151.17252 35 ft 11 kts 346°
2026-05-08 02:36 -33.93985 151.17228 34 ft 15 kts 348°
2026-05-08 02:37 -33.93873 151.17199 33 ft 18 kts 347°
2026-05-08 02:37 -33.93768 151.17172 34 ft 12 kts 348°
2026-05-08 02:37 -33.93700 151.17154 35 ft 5 kts 347°
2026-05-08 02:37 -33.93655 151.17142 35 ft 9 kts 348°
2026-05-08 02:38 -33.93580 151.17124 35 ft 13 kts 348°
2026-05-08 02:38 -33.93511 151.17090 36 ft 9 kts 309°
2026-05-08 02:38 -33.93505 151.17022 36 ft 8 kts 262°
2026-05-08 02:38 -33.93509 151.17000 36 ft 1 kts 250°
2026-05-08 02:39 -33.93513 151.16996 36 ft 1 kts 231°
2026-05-08 02:39 -33.93533 151.16991 36 ft 3 kts 177°
2026-05-08 02:39 -33.93572 151.17001 36 ft 8 kts 168°
2026-05-08 02:39 -33.93605 151.17010 36 ft 2 kts 168°
2026-05-08 02:40 -33.93617 151.17013 36 ft 0 kts 168°